Location: El Mouella
(16.4949°N, 9.1594°W)
Time: 01:21:26
(UTC+00:00)

H-2A R/B - Pass Details

Date: 22 September 2020
Orbit: 734 x 836 km, 98.2° (Epoch: 20 October)

Event Time Altitude Azimuth Distance (km) Brightness Sun altitude
Exits shadow 20:25:08 24° 193° (SSW) 1,476 3.5 -27.8°
Maximum altitude 20:27:50 52° 259° (W) 917 2.6 -28.4°
Drops below altitude 10° 20:32:40 10° 335° (NNW) 2,264 4.8 -29.5°
Sets 20:35:02 0° 341° (NNW) 3,202 5.6 -30.1°
